Time,TemperatureF,DewpointF,PressureIn,WindDirection,WindDirectionDegrees,WindSpeedMPH,WindSpeedGustMPH,Humidity,HourlyPrecipIn,Conditions,Clouds,dailyrainin,SoftwareType,DateUTC
2013-02-02 00:02:00,47.5,39.9,30.22,SSE,155,1.0,5.0,75,0.00,,,0.00,meteohub,2013-02-02 06:02:00,
2013-02-02 00:07:00,47.5,39.9,30.22,SSE,152,1.0,4.0,75,0.00,,,0.00,meteohub,2013-02-02 06:07:00,
2013-02-02 00:12:00,47.3,39.7,30.22,SSE,168,1.0,4.0,75,0.00,,,0.00,meteohub,2013-02-02 06:12:00,
2013-02-02 00:17:00,47.1,39.9,30.22,South,175,1.0,4.0,76,0.00,,,0.00,meteohub,2013-02-02 06:17:00,
2013-02-02 00:22:00,47.1,39.9,30.22,South,173,2.0,4.0,76,0.00,,,0.00,meteohub,2013-02-02 06:22:00,
2013-02-02 00:27:00,46.9,39.7,30.22,SE,144,0.0,4.0,76,0.00,,,0.00,meteohub,2013-02-02 06:27:00,
2013-02-02 00:32:00,46.9,39.7,30.22,South,173,0.0,4.0,76,0.00,,,0.00,meteohub,2013-02-02 06:32:00,
2013-02-02 00:37:00,46.9,39.7,30.22,SSW,192,2.0,4.0,76,0.00,,,0.00,meteohub,2013-02-02 06:37:00,
2013-02-02 00:42:00,46.8,39.6,30.22,South,171,1.0,4.0,76,0.00,,,0.00,meteohub,2013-02-02 06:42:00,
2013-02-02 00:47:00,46.8,39.6,30.21,South,172,1.0,3.0,76,0.00,,,0.00,meteohub,2013-02-02 06:47:00,
2013-02-02 00:52:00,46.6,39.4,30.21,SSE,165,2.0,4.0,76,0.00,,,0.00,meteohub,2013-02-02 06:52:00,
2013-02-02 00:57:00,46.6,39.4,30.21,SE,142,1.0,4.0,76,0.00,,,0.00,meteohub,2013-02-02 06:57:00,
2013-02-02 01:02:00,46.6,39.4,30.21,SSE,167,2.0,4.0,76,0.00,,,0.00,meteohub,2013-02-02 07:02:00,
2013-02-02 01:07:00,46.6,39.4,30.21,South,172,1.0,5.0,76,0.00,,,0.00,meteohub,2013-02-02 07:07:00,
2013-02-02 01:17:00,46.8,39.6,30.20,SE,138,3.0,6.0,76,0.00,,,0.00,meteohub,2013-02-02 07:17:00,
2013-02-02 01:22:00,46.9,39.4,30.20,SSW,196,1.0,6.0,75,0.00,,,0.00,meteohub,2013-02-02 07:22:00,
2013-02-02 01:32:00,47.3,39.4,30.20,South,188,3.0,6.0,74,0.00,,,0.00,meteohub,2013-02-02 07:32:00,
2013-02-02 01:37:00,47.5,39.6,30.20,SSE,161,3.0,5.0,74,0.00,,,0.00,meteohub,2013-02-02 07:37:00,
2013-02-02 01:42:00,47.7,39.7,30.20,South,190,1.0,6.0,74,0.00,,,0.00,meteohub,2013-02-02 07:42:00,
2013-02-02 01:52:00,48.0,39.7,30.20,SSW,209,2.0,6.0,73,0.00,,,0.00,meteohub,2013-02-02 07:52:00,
2013-02-02 01:57:00,48.4,40.1,30.20,SSW,193,6.0,7.0,73,0.00,,,0.00,meteohub,2013-02-02 07:57:00,
2013-02-02 02:02:00,48.6,40.3,30.20,SSE,162,5.0,9.0,73,0.00,,,0.00,meteohub,2013-02-02 08:02:00,
2013-02-02 02:07:00,48.9,40.3,30.20,SSE,154,6.0,9.0,72,0.00,,,0.00,meteohub,2013-02-02 08:07:00,
2013-02-02 02:17:00,49.5,40.8,30.20,SW,217,4.0,9.0,72,0.00,,,0.00,meteohub,2013-02-02 08:17:00,
2013-02-02 02:22:00,49.5,40.8,30.19,SSW,198,2.0,8.0,72,0.00,,,0.00,meteohub,2013-02-02 08:22:00,
2013-02-02 02:27:00,49.5,40.5,30.19,South,191,3.0,8.0,71,0.00,,,0.00,meteohub,2013-02-02 08:27:00,
2013-02-02 02:32:00,49.6,40.6,30.19,SSW,193,2.0,9.0,71,0.00,,,0.00,meteohub,2013-02-02 08:32:00,
2013-02-02 02:37:00,49.6,40.6,30.19,SSW,209,3.0,9.0,71,0.00,,,0.00,meteohub,2013-02-02 08:37:00,
2013-02-02 02:42:00,49.6,40.6,30.19,SSW,200,4.0,13.0,71,0.00,,,0.00,meteohub,2013-02-02 08:42:00,
2013-02-02 02:47:00,49.5,40.8,30.19,South,179,3.0,13.0,72,0.00,,,0.00,meteohub,2013-02-02 08:47:00,
2013-02-02 02:52:00,49.5,40.8,30.19,South,180,5.0,13.0,72,0.00,,,0.00,meteohub,2013-02-02 08:52:00,
2013-02-02 02:57:00,49.5,40.8,30.19,SSE,155,5.0,13.0,72,0.00,,,0.00,meteohub,2013-02-02 08:57:00,
2013-02-02 03:02:00,49.5,40.8,30.19,South,178,4.0,13.0,72,0.00,,,0.00,meteohub,2013-02-02 09:02:00,
2013-02-02 03:12:00,49.3,41.0,30.19,South,186,4.0,9.0,73,0.00,,,0.00,meteohub,2013-02-02 09:12:00,
2013-02-02 03:17:00,49.3,41.0,30.18,SW,225,3.0,11.0,73,0.00,,,0.00,meteohub,2013-02-02 09:17:00,
2013-02-02 03:22:00,49.1,40.8,30.18,South,187,4.0,11.0,73,0.00,,,0.00,meteohub,2013-02-02 09:22:00,
2013-02-02 03:27:00,48.9,41.0,30.18,SE,124,1.0,11.0,74,0.00,,,0.00,meteohub,2013-02-02 09:27:00,
2013-02-02 03:32:00,48.9,41.0,30.18,SSE,161,9.0,11.0,74,0.00,,,0.00,meteohub,2013-02-02 09:32:00,
2013-02-02 03:37:00,48.9,41.0,30.18,SSE,168,5.0,10.0,74,0.00,,,0.00,meteohub,2013-02-02 09:37:00,
2013-02-02 03:47:00,48.9,41.4,30.18,South,183,11.0,14.0,75,0.00,,,0.00,meteohub,2013-02-02 09:47:00,
2013-02-02 03:52:00,48.9,41.4,30.18,SW,227,3.0,14.0,75,0.00,,,0.00,meteohub,2013-02-02 09:52:00,
2013-02-02 03:57:00,48.9,41.4,30.18,SW,219,4.0,14.0,75,0.00,,,0.00,meteohub,2013-02-02 09:57:00,
2013-02-02 04:02:00,48.9,41.4,30.18,South,169,3.0,11.0,75,0.00,,,0.00,meteohub,2013-02-02 10:02:00,
2013-02-02 04:12:00,48.9,41.7,30.18,SSW,207,3.0,11.0,76,0.00,,,0.00,meteohub,2013-02-02 10:12:00,
2013-02-02 04:17:00,48.9,41.7,30.18,South,184,4.0,10.0,76,0.00,,,0.00,meteohub,2013-02-02 10:17:00,
2013-02-02 04:22:00,48.9,41.7,30.18,SSE,167,4.0,10.0,76,0.00,,,0.00,meteohub,2013-02-02 10:22:00,
2013-02-02 04:27:00,48.9,41.7,30.18,South,185,3.0,9.0,76,0.00,,,0.00,meteohub,2013-02-02 10:27:00,
2013-02-02 04:32:00,48.9,42.1,30.18,South,178,8.0,9.0,77,0.00,,,0.00,meteohub,2013-02-02 10:32:00,
2013-02-02 04:42:00,48.9,42.1,30.18,SW,220,8.0,12.0,77,0.00,,,0.00,meteohub,2013-02-02 10:42:00,
2013-02-02 04:47:00,48.9,42.1,30.18,SSW,203,6.0,9.0,77,0.00,,,0.00,meteohub,2013-02-02 10:47:00,
2013-02-02 04:52:00,48.9,42.4,30.18,South,169,7.0,10.0,78,0.00,,,0.00,meteohub,2013-02-02 10:52:00,
2013-02-02 04:57:00,48.9,42.4,30.18,SSW,205,5.0,10.0,78,0.00,,,0.00,meteohub,2013-02-02 10:57:00,
2013-02-02 05:02:00,48.9,42.4,30.18,SW,229,0.0,10.0,78,0.00,,,0.00,meteohub,2013-02-02 11:02:00,
2013-02-02 05:07:00,48.9,42.4,30.18,South,175,3.0,9.0,78,0.00,,,0.00,meteohub,2013-02-02 11:07:00,
2013-02-02 05:17:00,49.1,42.8,30.18,SSW,213,4.0,9.0,79,0.00,,,0.00,meteohub,2013-02-02 11:17:00,
2013-02-02 05:22:00,49.1,42.8,30.19,South,175,4.0,10.0,79,0.00,,,0.00,meteohub,2013-02-02 11:22:00,
2013-02-02 05:27:00,48.9,42.6,30.19,South,185,3.0,10.0,79,0.00,,,0.00,meteohub,2013-02-02 11:27:00,
2013-02-02 05:32:00,48.9,42.6,30.19,SSW,194,3.0,10.0,79,0.00,,,0.00,meteohub,2013-02-02 11:32:00,
2013-02-02 05:37:00,48.9,42.6,30.19,SW,221,4.0,10.0,79,0.00,,,0.00,meteohub,2013-02-02 11:37:00,
2013-02-02 05:42:00,48.7,42.8,30.19,South,186,2.0,9.0,80,0.00,,,0.00,meteohub,2013-02-02 11:42:00,
2013-02-02 05:47:00,48.7,42.8,30.19,SSW,194,7.0,11.0,80,0.00,,,0.00,meteohub,2013-02-02 11:47:00,
2013-02-02 05:52:00,48.7,42.8,30.19,South,186,6.0,11.0,80,0.00,,,0.00,meteohub,2013-02-02 11:52:00,
2013-02-02 05:57:00,48.7,43.2,30.19,SSE,153,3.0,10.0,81,0.00,,,0.00,meteohub,2013-02-02 11:57:00,
2013-02-02 06:02:00,48.7,43.2,30.19,SSW,212,3.0,10.0,81,0.00,,,0.00,meteohub,2013-02-02 12:02:00,
2013-02-02 06:12:00,48.6,43.0,30.19,SSW,209,3.0,8.0,81,0.00,,,0.00,meteohub,2013-02-02 12:12:00,
2013-02-02 06:17:00,48.4,43.2,30.19,SSW,203,3.0,7.0,82,0.00,,,0.00,meteohub,2013-02-02 12:17:00,
2013-02-02 06:27:00,48.4,43.2,30.19,SSW,208,3.0,7.0,82,0.00,,,0.00,meteohub,2013-02-02 12:27:00,
2013-02-02 06:32:00,48.2,43.0,30.19,WSW,238,6.0,11.0,82,0.00,,,0.00,meteohub,2013-02-02 12:32:00,
2013-02-02 06:37:00,48.2,43.3,30.20,SSW,195,3.0,11.0,83,0.00,,,0.00,meteohub,2013-02-02 12:37:00,
2013-02-02 06:47:00,48.0,43.2,30.20,South,181,2.0,7.0,83,0.00,,,0.00,meteohub,2013-02-02 12:47:00,
2013-02-02 06:52:00,47.8,43.0,30.20,SSW,205,4.0,7.0,83,0.00,,,0.00,meteohub,2013-02-02 12:52:00,
2013-02-02 07:02:00,47.8,43.2,30.21,SSW,200,3.0,7.0,84,0.00,,,0.00,meteohub,2013-02-02 13:02:00,
2013-02-02 07:07:00,47.7,43.0,30.21,SSW,193,2.0,7.0,84,0.00,,,0.00,meteohub,2013-02-02 13:07:00,
2013-02-02 07:12:00,47.7,43.0,30.21,South,190,2.0,7.0,84,0.00,,,0.00,meteohub,2013-02-02 13:12:00,
2013-02-02 07:17:00,47.7,43.3,30.21,South,183,3.0,7.0,85,0.00,,,0.00,meteohub,2013-02-02 13:17:00,
2013-02-02 07:22:00,47.7,43.3,30.21,SSW,201,3.0,6.0,85,0.00,,,0.00,meteohub,2013-02-02 13:22:00,
2013-02-02 07:27:00,47.7,43.3,30.21,SSW,196,3.0,6.0,85,0.00,,,0.00,meteohub,2013-02-02 13:27:00,
2013-02-02 07:37:00,47.7,43.3,30.22,South,186,3.0,6.0,85,0.00,,,0.00,meteohub,2013-02-02 13:37:00,
2013-02-02 07:42:00,47.7,43.3,30.22,SSE,167,1.0,6.0,85,0.00,,,0.00,meteohub,2013-02-02 13:42:00,
2013-02-02 07:47:00,47.7,43.3,30.22,SSW,197,5.0,5.0,85,0.00,,,0.00,meteohub,2013-02-02 13:47:00,
2013-02-02 07:52:00,47.8,43.9,30.22,SSE,161,1.0,7.0,86,0.00,,,0.00,meteohub,2013-02-02 13:52:00,
2013-02-02 07:57:00,48.2,43.9,30.22,South,173,2.0,8.0,85,0.00,,,0.00,meteohub,2013-02-02 13:57:00,
2013-02-02 08:02:00,48.6,44.2,30.22,South,178,2.0,8.0,85,0.00,,,0.00,meteohub,2013-02-02 14:02:00,
2013-02-02 08:07:00,48.7,44.4,30.22,SSW,197,4.0,9.0,85,0.00,,,0.00,meteohub,2013-02-02 14:07:00,
2013-02-02 08:12:00,48.9,44.6,30.22,SSW,197,3.0,10.0,85,0.00,,,0.00,meteohub,2013-02-02 14:12:00,
2013-02-02 08:17:00,49.3,45.0,30.22,SSW,195,5.0,10.0,85,0.00,,,0.00,meteohub,2013-02-02 14:17:00,
2013-02-02 08:22:00,49.6,45.0,30.22,SW,222,2.0,10.0,84,0.00,,,0.00,meteohub,2013-02-02 14:22:00,
2013-02-02 08:27:00,50.2,45.5,30.22,SSW,193,5.0,10.0,84,0.00,,,0.00,meteohub,2013-02-02 14:27:00,
2013-02-02 08:32:00,50.5,45.5,30.22,SSW,213,7.0,10.0,83,0.00,,,0.00,meteohub,2013-02-02 14:32:00,
2013-02-02 08:42:00,51.3,45.7,30.22,South,178,4.0,10.0,81,0.00,,,0.00,meteohub,2013-02-02 14:42:00,
2013-02-02 08:47:00,51.8,46.2,30.23,SW,215,5.0,9.0,81,0.00,,,0.00,meteohub,2013-02-02 14:47:00,
2013-02-02 08:52:00,52.2,46.6,30.23,South,190,2.0,9.0,81,0.00,,,0.00,meteohub,2013-02-02 14:52:00,
2013-02-02 08:57:00,52.7,46.8,30.23,SSW,202,5.0,9.0,80,0.00,,,0.00,meteohub,2013-02-02 14:57:00,
2013-02-02 09:02:00,53.2,46.9,30.23,South,183,6.0,9.0,79,0.00,,,0.00,meteohub,2013-02-02 15:02:00,
2013-02-02 09:07:00,54.0,47.7,30.23,SSW,193,6.0,9.0,79,0.00,,,0.00,meteohub,2013-02-02 15:07:00,
2013-02-02 09:12:00,54.9,47.8,30.23,WSW,239,4.0,9.0,77,0.00,,,0.00,meteohub,2013-02-02 15:12:00,
2013-02-02 09:17:00,55.6,48.2,30.24,South,172,3.0,12.0,76,0.00,,,0.00,meteohub,2013-02-02 15:17:00,
2013-02-02 09:22:00,56.5,48.9,30.24,SSW,210,6.0,12.0,76,0.00,,,0.00,meteohub,2013-02-02 15:22:00,
2013-02-02 09:27:00,57.6,49.3,30.24,South,187,1.0,12.0,74,0.00,,,0.00,meteohub,2013-02-02 15:27:00,
2013-02-02 09:32:00,58.3,49.6,30.24,SW,236,8.0,12.0,73,0.00,,,0.00,meteohub,2013-02-02 15:32:00,
2013-02-02 09:37:00,59.2,49.8,30.24,SSW,202,4.0,13.0,71,0.00,,,0.00,meteohub,2013-02-02 15:37:00,
2013-02-02 09:42:00,59.7,50.4,30.24,SW,229,3.0,13.0,71,0.00,,,0.00,meteohub,2013-02-02 15:42:00,
2013-02-02 09:47:00,60.4,50.5,30.24,SW,214,5.0,13.0,70,0.00,,,0.00,meteohub,2013-02-02 15:47:00,
2013-02-02 09:52:00,61.3,51.1,30.25,WSW,250,5.0,10.0,69,0.00,,,0.00,meteohub,2013-02-02 15:52:00,
2013-02-02 09:57:00,62.1,51.4,30.25,SW,214,2.0,11.0,68,0.00,,,0.00,meteohub,2013-02-02 15:57:00,
2013-02-02 10:02:00,62.4,51.8,30.25,WSW,238,4.0,13.0,68,0.00,,,0.00,meteohub,2013-02-02 16:02:00,
2013-02-02 10:07:00,63.0,51.8,30.25,NW,325,2.0,13.0,67,0.00,,,0.00,meteohub,2013-02-02 16:07:00,
2013-02-02 10:12:00,63.5,52.0,30.25,South,184,6.0,13.0,66,0.00,,,0.00,meteohub,2013-02-02 16:12:00,
2013-02-02 10:17:00,63.9,52.3,30.25,WNW,284,1.0,14.0,66,0.00,,,0.00,meteohub,2013-02-02 16:17:00,
2013-02-02 10:22:00,64.2,52.7,30.25,SSW,192,5.0,14.0,66,0.00,,,0.00,meteohub,2013-02-02 16:22:00,
2013-02-02 10:27:00,64.8,52.7,30.25,West,267,1.0,13.0,65,0.00,,,0.00,meteohub,2013-02-02 16:27:00,
2013-02-02 10:32:00,65.3,53.2,30.25,WSW,239,7.0,13.0,65,0.00,,,0.00,meteohub,2013-02-02 16:32:00,
2013-02-02 10:37:00,65.7,53.2,30.25,West,261,8.0,13.0,64,0.00,,,0.00,meteohub,2013-02-02 16:37:00,
2013-02-02 10:42:00,65.8,53.2,30.25,SW,224,4.0,13.0,64,0.00,,,0.00,meteohub,2013-02-02 16:42:00,
2013-02-02 10:47:00,66.2,53.6,30.25,SW,217,8.0,13.0,64,0.00,,,0.00,meteohub,2013-02-02 16:47:00,
2013-02-02 10:57:00,66.7,53.2,30.25,SW,228,5.0,13.0,62,0.00,,,0.00,meteohub,2013-02-02 16:57:00,
2013-02-02 11:02:00,66.9,53.4,30.25,West,266,3.0,13.0,62,0.00,,,0.00,meteohub,2013-02-02 17:02:00,
2013-02-02 11:07:00,67.5,54.0,30.25,SW,223,4.0,13.0,62,0.00,,,0.00,meteohub,2013-02-02 17:07:00,
2013-02-02 11:12:00,67.8,53.4,30.25,WSW,239,1.0,10.0,60,0.00,,,0.00,meteohub,2013-02-02 17:12:00,
2013-02-02 11:17:00,68.0,53.6,30.25,West,261,8.0,11.0,60,0.00,,,0.00,meteohub,2013-02-02 17:17:00,
2013-02-02 11:22:00,68.4,54.0,30.25,WSW,237,5.0,11.0,60,0.00,,,0.00,meteohub,2013-02-02 17:22:00,
2013-02-02 11:27:00,68.7,53.8,30.24,SW,221,5.0,13.0,59,0.00,,,0.00,meteohub,2013-02-02 17:27:00,
2013-02-02 11:32:00,68.7,52.9,30.24,WSW,246,6.0,14.0,57,0.00,,,0.00,meteohub,2013-02-02 17:32:00,
2013-02-02 11:37:00,68.7,52.9,30.24,WSW,250,5.0,14.0,57,0.00,,,0.00,meteohub,2013-02-02 17:37:00,
2013-02-02 11:42:00,68.7,52.9,30.24,SW,221,5.0,12.0,57,0.00,,,0.00,meteohub,2013-02-02 17:42:00,
2013-02-02 11:47:00,69.1,53.2,30.24,WSW,254,4.0,12.0,57,0.00,,,0.00,meteohub,2013-02-02 17:47:00,
2013-02-02 11:57:00,68.7,52.9,30.24,WSW,248,5.0,12.0,57,0.00,,,0.00,meteohub,2013-02-02 17:57:00,
2013-02-02 12:02:00,69.1,52.7,30.24,SSW,213,2.0,11.0,56,0.00,,,0.00,meteohub,2013-02-02 18:02:00,
2013-02-02 12:07:00,69.1,52.2,30.23,WSW,254,8.0,10.0,55,0.00,,,0.00,meteohub,2013-02-02 18:07:00,
2013-02-02 12:12:00,69.3,52.3,30.24,WSW,255,7.0,10.0,55,0.00,,,0.00,meteohub,2013-02-02 18:12:00,
2013-02-02 12:17:00,69.3,52.3,30.23,WSW,246,7.0,11.0,55,0.00,,,0.00,meteohub,2013-02-02 18:17:00,
2013-02-02 12:22:00,69.3,50.9,30.23,NW,308,3.0,11.0,52,0.00,,,0.00,meteohub,2013-02-02 18:22:00,
2013-02-02 12:27:00,68.5,51.3,30.23,WSW,238,3.0,11.0,54,0.00,,,0.00,meteohub,2013-02-02 18:27:00,
2013-02-02 12:32:00,68.7,51.4,30.22,WNW,296,6.0,10.0,54,0.00,,,0.00,meteohub,2013-02-02 18:32:00,
2013-02-02 12:37:00,69.1,50.7,30.22,NNW,341,2.0,10.0,52,0.00,,,0.00,meteohub,2013-02-02 18:37:00,
2013-02-02 12:42:00,68.7,50.4,30.22,NNW,332,3.0,9.0,52,0.00,,,0.00,meteohub,2013-02-02 18:42:00,
2013-02-02 12:47:00,68.4,51.1,30.22,WNW,284,3.0,13.0,54,0.00,,,0.00,meteohub,2013-02-02 18:47:00,
2013-02-02 12:52:00,68.7,52.0,30.22,WNW,283,5.0,13.0,55,0.00,,,0.00,meteohub,2013-02-02 18:52:00,
2013-02-02 12:57:00,69.1,50.7,30.22,West,271,3.0,13.0,52,0.00,,,0.00,meteohub,2013-02-02 18:57:00,
2013-02-02 13:02:00,69.1,50.7,30.22,WSW,248,4.0,11.0,52,0.00,,,0.00,meteohub,2013-02-02 19:02:00,
2013-02-02 13:07:00,69.1,51.3,30.21,NW,305,3.0,11.0,53,0.00,,,0.00,meteohub,2013-02-02 19:07:00,
2013-02-02 13:12:00,69.3,50.9,30.22,WNW,293,3.0,11.0,52,0.00,,,0.00,meteohub,2013-02-02 19:12:00,
2013-02-02 13:17:00,68.7,49.3,30.21,North,355,2.0,9.0,50,0.00,,,0.00,meteohub,2013-02-02 19:17:00,
2013-02-02 13:22:00,68.5,49.6,30.21,NE,34,1.0,10.0,51,0.00,,,0.00,meteohub,2013-02-02 19:22:00,
2013-02-02 13:27:00,68.5,49.6,30.21,West,281,4.0,10.0,51,0.00,,,0.00,meteohub,2013-02-02 19:27:00,
2013-02-02 13:32:00,68.7,50.4,30.21,WNW,296,3.0,10.0,52,0.00,,,0.00,meteohub,2013-02-02 19:32:00,
2013-02-02 13:37:00,68.9,50.0,30.20,West,269,2.0,10.0,51,0.00,,,0.00,meteohub,2013-02-02 19:37:00,
2013-02-02 13:47:00,69.1,50.7,30.20,West,264,1.0,10.0,52,0.00,,,0.00,meteohub,2013-02-02 19:47:00,
2013-02-02 13:52:00,69.3,50.4,30.20,NNW,333,2.0,8.0,51,0.00,,,0.00,meteohub,2013-02-02 19:52:00,
2013-02-02 14:02:00,69.1,50.2,30.19,WSW,253,6.0,7.0,51,0.00,,,0.00,meteohub,2013-02-02 20:02:00,
2013-02-02 14:12:00,69.4,49.5,30.20,NNE,26,1.0,8.0,49,0.00,,,0.00,meteohub,2013-02-02 20:12:00,
2013-02-02 14:22:00,69.1,48.6,30.20,North,0,7.0,10.0,48,0.00,,,0.00,meteohub,2013-02-02 20:22:00,
2013-02-02 14:27:00,68.5,49.1,30.19,NNW,327,3.0,10.0,50,0.00,,,0.00,meteohub,2013-02-02 20:27:00,
2013-02-02 14:37:00,68.5,48.6,30.20,WNW,301,5.0,9.0,49,0.00,,,0.00,meteohub,2013-02-02 20:37:00,
2013-02-02 14:42:00,68.4,48.4,30.20,NNW,340,2.0,9.0,49,0.00,,,0.00,meteohub,2013-02-02 20:42:00,
2013-02-02 14:52:00,68.4,48.4,30.19,North,0,3.0,9.0,49,0.00,,,0.00,meteohub,2013-02-02 20:52:00,
2013-02-02 14:57:00,68.5,48.6,30.20,North,5,3.0,8.0,49,0.00,,,0.00,meteohub,2013-02-02 20:57:00,
2013-02-02 15:02:00,68.5,48.6,30.20,NNW,346,3.0,8.0,49,0.00,,,0.00,meteohub,2013-02-02 21:02:00,
2013-02-02 15:07:00,68.7,48.2,30.20,WNW,296,4.0,7.0,48,0.00,,,0.00,meteohub,2013-02-02 21:07:00,
2013-02-02 15:12:00,68.9,47.3,30.20,NNW,336,5.0,9.0,46,0.00,,,0.00,meteohub,2013-02-02 21:12:00,
2013-02-02 15:17:00,68.7,47.1,30.20,NNW,334,3.0,9.0,46,0.00,,,0.00,meteohub,2013-02-02 21:17:00,
2013-02-02 15:22:00,68.5,47.5,30.20,NW,304,3.0,8.0,47,0.00,,,0.00,meteohub,2013-02-02 21:22:00,
2013-02-02 15:27:00,68.5,46.9,30.20,NNE,19,4.0,8.0,46,0.00,,,0.00,meteohub,2013-02-02 21:27:00,
2013-02-02 15:37:00,68.5,46.9,30.20,North,5,6.0,9.0,46,0.00,,,0.00,meteohub,2013-02-02 21:37:00,
2013-02-02 15:42:00,68.2,46.0,30.20,NNW,334,3.0,9.0,45,0.00,,,0.00,meteohub,2013-02-02 21:42:00,
2013-02-02 15:52:00,68.0,45.9,30.20,NNW,336,3.0,6.0,45,0.00,,,0.00,meteohub,2013-02-02 21:52:00,
2013-02-02 15:57:00,67.8,46.2,30.20,NNW,327,3.0,8.0,46,0.00,,,0.00,meteohub,2013-02-02 21:57:00,
2013-02-02 16:07:00,67.6,45.0,30.20,NW,304,4.0,8.0,44,0.00,,,0.00,meteohub,2013-02-02 22:07:00,
2013-02-02 16:12:00,67.5,43.5,30.20,NNW,333,4.0,7.0,42,0.00,,,0.00,meteohub,2013-02-02 22:12:00,
2013-02-02 16:17:00,66.9,41.9,30.20,NE,48,2.0,7.0,40,0.00,,,0.00,meteohub,2013-02-02 22:17:00,
2013-02-02 16:22:00,66.6,40.1,30.21,WNW,300,4.0,7.0,38,0.00,,,0.00,meteohub,2013-02-02 22:22:00,
2013-02-02 16:27:00,66.4,41.9,30.21,North,355,3.0,7.0,41,0.00,,,0.00,meteohub,2013-02-02 22:27:00,
2013-02-02 16:32:00,66.0,41.0,30.21,NNE,28,3.0,7.0,40,0.00,,,0.00,meteohub,2013-02-02 22:32:00,
2013-02-02 16:37:00,65.8,42.1,30.21,NW,323,1.0,8.0,42,0.00,,,0.00,meteohub,2013-02-02 22:37:00,
2013-02-02 16:42:00,65.7,41.9,30.21,WNW,297,4.0,8.0,42,0.00,,,0.00,meteohub,2013-02-02 22:42:00,
2013-02-02 16:52:00,65.1,42.6,30.21,North,5,2.0,6.0,44,0.00,,,0.00,meteohub,2013-02-02 22:52:00,
2013-02-02 16:57:00,64.9,43.2,30.21,NNE,28,1.0,8.0,45,0.00,,,0.00,meteohub,2013-02-02 22:57:00,
2013-02-02 17:02:00,64.8,43.5,30.21,NW,304,2.0,8.0,46,0.00,,,0.00,meteohub,2013-02-02 23:02:00,
2013-02-02 17:07:00,64.8,44.1,30.21,NW,306,4.0,4.0,47,0.00,,,0.00,meteohub,2013-02-02 23:07:00,
2013-02-02 17:12:00,64.4,43.7,30.21,North,9,3.0,5.0,47,0.00,,,0.00,meteohub,2013-02-02 23:12:00,
2013-02-02 17:17:00,64.0,42.8,30.22,North,0,2.0,5.0,46,0.00,,,0.00,meteohub,2013-02-02 23:17:00,
2013-02-02 17:22:00,63.9,41.5,30.22,NNW,333,3.0,5.0,44,0.00,,,0.00,meteohub,2013-02-02 23:22:00,
2013-02-02 17:27:00,63.5,40.6,30.22,NNW,331,1.0,5.0,43,0.00,,,0.00,meteohub,2013-02-02 23:27:00,
2013-02-02 17:32:00,63.1,39.7,30.22,NNE,15,1.0,4.0,42,0.00,,,0.00,meteohub,2013-02-02 23:32:00,
2013-02-02 17:37:00,62.8,39.4,30.22,NW,306,1.0,4.0,42,0.00,,,0.00,meteohub,2013-02-02 23:37:00,
2013-02-02 17:42:00,62.4,39.0,30.22,North,0,1.0,4.0,42,0.00,,,0.00,meteohub,2013-02-02 23:42:00,
2013-02-02 17:47:00,62.1,38.7,30.22,NNW,333,2.0,4.0,42,0.00,,,0.00,meteohub,2013-02-02 23:47:00,
2013-02-02 17:52:00,61.5,38.3,30.22,NW,315,2.0,4.0,42,0.00,,,0.00,meteohub,2013-02-02 23:52:00,
2013-02-02 17:57:00,61.2,38.5,30.22,NW,316,1.0,4.0,43,0.00,,,0.00,meteohub,2013-02-02 23:57:00,
2013-02-02 18:02:00,60.8,38.1,30.23,NW,309,3.0,4.0,43,0.00,,,0.00,meteohub,2013-02-03 00:02:00,
2013-02-02 18:07:00,60.3,38.3,30.23,NW,315,2.0,4.0,44,0.00,,,0.00,meteohub,2013-02-03 00:07:00,
2013-02-02 18:12:00,60.1,38.1,30.23,NW,310,1.0,3.0,44,0.00,,,0.00,meteohub,2013-02-03 00:12:00,
2013-02-02 18:17:00,59.5,37.6,30.23,NW,317,2.0,3.0,44,0.00,,,0.00,meteohub,2013-02-03 00:17:00,
2013-02-02 18:22:00,59.4,37.9,30.23,NW,322,1.0,3.0,45,0.00,,,0.00,meteohub,2013-02-03 00:22:00,
2013-02-02 18:32:00,58.6,37.9,30.24,WNW,302,2.0,3.0,46,0.00,,,0.00,meteohub,2013-02-03 00:32:00,
2013-02-02 18:37:00,58.3,37.6,30.24,WNW,302,2.0,4.0,46,0.00,,,0.00,meteohub,2013-02-03 00:37:00,
2013-02-02 18:42:00,57.9,37.2,30.24,NNW,337,2.0,4.0,46,0.00,,,0.00,meteohub,2013-02-03 00:42:00,
2013-02-02 18:47:00,57.7,37.0,30.24,NNW,332,1.0,4.0,46,0.00,,,0.00,meteohub,2013-02-03 00:47:00,
2013-02-02 18:52:00,57.6,36.9,30.24,NW,311,3.0,4.0,46,0.00,,,0.00,meteohub,2013-02-03 00:52:00,
2013-02-02 19:02:00,57.2,37.2,30.24,NW,323,1.0,4.0,47,0.00,,,0.00,meteohub,2013-02-03 01:02:00,
2013-02-02 19:07:00,57.0,37.0,30.24,NNW,331,2.0,4.0,47,0.00,,,0.00,meteohub,2013-02-03 01:07:00,
2013-02-02 19:12:00,57.0,37.0,30.24,NW,311,3.0,4.0,47,0.00,,,0.00,meteohub,2013-02-03 01:12:00,
2013-02-02 19:22:00,56.8,36.9,30.24,NW,317,1.0,4.0,47,0.00,,,0.00,meteohub,2013-02-03 01:22:00,
2013-02-02 19:27:00,56.7,36.7,30.24,NW,317,2.0,4.0,47,0.00,,,0.00,meteohub,2013-02-03 01:27:00,
2013-02-02 19:32:00,56.5,36.5,30.24,NW,317,0.0,4.0,47,0.00,,,0.00,meteohub,2013-02-03 01:32:00,
2013-02-02 19:37:00,56.3,36.3,30.25,NW,317,1.0,4.0,47,0.00,,,0.00,meteohub,2013-02-03 01:37:00,
2013-02-02 19:42:00,56.1,36.1,30.25,NW,310,2.0,3.0,47,0.00,,,0.00,meteohub,2013-02-03 01:42:00,
2013-02-02 19:47:00,55.9,36.0,30.25,NW,310,1.0,4.0,47,0.00,,,0.00,meteohub,2013-02-03 01:47:00,
2013-02-02 19:52:00,55.9,36.5,30.25,NW,310,1.0,4.0,48,0.00,,,0.00,meteohub,2013-02-03 01:52:00,
2013-02-02 19:57:00,55.8,36.3,30.25,NW,310,1.0,4.0,48,0.00,,,0.00,meteohub,2013-02-03 01:57:00,
2013-02-02 20:02:00,55.4,36.5,30.25,NW,310,0.0,3.0,49,0.00,,,0.00,meteohub,2013-02-03 02:02:00,
2013-02-02 20:07:00,55.2,36.9,30.25,NW,311,1.0,2.0,50,0.00,,,0.00,meteohub,2013-02-03 02:07:00,
2013-02-02 20:12:00,54.9,36.1,30.25,NW,311,0.0,3.0,49,0.00,,,0.00,meteohub,2013-02-03 02:12:00,
2013-02-02 20:17:00,54.7,36.9,30.26,NW,311,0.0,3.0,51,0.00,,,0.00,meteohub,2013-02-03 02:17:00,
2013-02-02 20:22:00,54.3,36.1,30.26,NW,311,1.0,3.0,50,0.00,,,0.00,meteohub,2013-02-03 02:22:00,
2013-02-02 20:27:00,54.0,36.7,30.26,NW,311,0.0,2.0,52,0.00,,,0.00,meteohub,2013-02-03 02:27:00,
2013-02-02 20:37:00,53.4,35.8,30.27,NW,310,0.0,1.0,51,0.00,,,0.00,meteohub,2013-02-03 02:37:00,
2013-02-02 20:42:00,53.4,35.8,30.27,NW,311,2.0,2.0,51,0.00,,,0.00,meteohub,2013-02-03 02:42:00,
2013-02-02 20:47:00,53.2,36.1,30.27,NW,311,1.0,3.0,52,0.00,,,0.00,meteohub,2013-02-03 02:47:00,
2013-02-02 20:52:00,53.2,36.1,30.27,NW,311,2.0,3.0,52,0.00,,,0.00,meteohub,2013-02-03 02:52:00,
2013-02-02 21:02:00,53.4,36.3,30.27,NW,311,2.0,3.0,52,0.00,,,0.00,meteohub,2013-02-03 03:02:00,
2013-02-02 21:12:00,53.4,36.3,30.28,NW,311,1.0,3.0,52,0.00,,,0.00,meteohub,2013-02-03 03:12:00,
2013-02-02 21:17:00,53.2,36.1,30.28,NW,311,0.0,3.0,52,0.00,,,0.00,meteohub,2013-02-03 03:17:00,
2013-02-02 21:27:00,52.9,36.1,30.28,NW,311,1.0,3.0,53,0.00,,,0.00,meteohub,2013-02-03 03:27:00,
2013-02-02 21:32:00,52.5,36.3,30.28,NW,310,1.0,2.0,54,0.00,,,0.00,meteohub,2013-02-03 03:32:00,
2013-02-02 21:37:00,52.3,35.8,30.28,NW,308,2.0,2.0,53,0.00,,,0.00,meteohub,2013-02-03 03:37:00,
2013-02-02 21:42:00,52.3,35.8,30.28,West,267,3.0,3.0,53,0.00,,,0.00,meteohub,2013-02-03 03:42:00,
2013-02-02 21:52:00,52.3,36.1,30.28,WNW,292,3.0,4.0,54,0.00,,,0.00,meteohub,2013-02-03 03:52:00,
2013-02-02 21:57:00,52.3,36.1,30.28,WNW,301,2.0,4.0,54,0.00,,,0.00,meteohub,2013-02-03 03:57:00,
2013-02-02 22:07:00,52.3,35.8,30.29,NW,306,1.0,4.0,53,0.00,,,0.00,meteohub,2013-02-03 04:07:00,
2013-02-02 22:17:00,52.2,36.0,30.29,NW,306,0.0,4.0,54,0.00,,,0.00,meteohub,2013-02-03 04:17:00,
2013-02-02 22:22:00,52.0,35.8,30.29,NW,306,0.0,3.0,54,0.00,,,0.00,meteohub,2013-02-03 04:22:00,
2013-02-02 22:27:00,51.8,35.6,30.29,NW,306,2.0,3.0,54,0.00,,,0.00,meteohub,2013-02-03 04:27:00,
2013-02-02 22:32:00,51.6,36.0,30.29,NW,306,1.0,3.0,55,0.00,,,0.00,meteohub,2013-02-03 04:32:00,
2013-02-02 22:37:00,51.4,35.8,30.29,NW,319,0.0,2.0,55,0.00,,,0.00,meteohub,2013-02-03 04:37:00,
2013-02-02 22:42:00,51.3,35.6,30.29,NW,319,0.0,3.0,55,0.00,,,0.00,meteohub,2013-02-03 04:42:00,
2013-02-02 22:47:00,51.1,35.4,30.29,NW,319,0.0,3.0,55,0.00,,,0.00,meteohub,2013-02-03 04:47:00,
2013-02-02 22:57:00,50.5,35.4,30.30,NW,319,0.0,2.0,56,0.00,,,0.00,meteohub,2013-02-03 04:57:00,
2013-02-02 23:02:00,50.2,35.6,30.30,NW,319,1.0,2.0,57,0.00,,,0.00,meteohub,2013-02-03 05:02:00,
2013-02-02 23:07:00,49.8,35.2,30.29,NW,319,0.0,2.0,57,0.00,,,0.00,meteohub,2013-02-03 05:07:00,
2013-02-02 23:12:00,49.6,36.0,30.29,NW,319,1.0,2.0,59,0.00,,,0.00,meteohub,2013-02-03 05:12:00,
2013-02-02 23:17:00,49.3,35.1,30.30,NW,319,1.0,1.0,58,0.00,,,0.00,meteohub,2013-02-03 05:17:00,
2013-02-02 23:22:00,49.1,34.9,30.30,NW,319,0.0,1.0,58,0.00,,,0.00,meteohub,2013-02-03 05:22:00,
2013-02-02 23:27:00,48.9,35.2,30.30,NW,319,0.0,2.0,59,0.00,,,0.00,meteohub,2013-02-03 05:27:00,
2013-02-02 23:32:00,48.7,35.1,30.30,NW,319,0.0,2.0,59,0.00,,,0.00,meteohub,2013-02-03 05:32:00,
2013-02-02 23:37:00,48.7,35.4,30.30,NW,319,2.0,2.0,60,0.00,,,0.00,meteohub,2013-02-03 05:37:00,
2013-02-02 23:42:00,48.6,34.9,30.30,NW,319,1.0,3.0,59,0.00,,,0.00,meteohub,2013-02-03 05:42:00,
2013-02-02 23:47:00,48.7,35.1,30.30,NW,319,2.0,3.0,59,0.00,,,0.00,meteohub,2013-02-03 05:47:00,
2013-02-02 23:52:00,48.9,35.2,30.30,NW,316,2.0,3.0,59,0.00,,,0.00,meteohub,2013-02-03 05:52:00,
2013-02-02 23:57:00,48.9,35.2,30.30,NW,316,1.0,3.0,59,0.00,,,0.00,meteohub,2013-02-03 05:57:00,